Content
SEND FEEDBACK

Daily
Averages
Monthly
Summary
South Africa

PORT ELIZABETH, SOUTH AFRICA


Home > Africa > South Africa
Elevation: 197 feet     Latitude: 33 59S     Longitude: 025 36E

WEATHER
 
SELECT A DAY
Number of Records: 185,904;   Date Range: 7/1/96 - 9/21/14
 
SHARE

PRINT THIS DATA

[ ← Previous Day ]
WEATHER ALMANAC - JANUARY 31, 2013
[ Next Day → ]
[ °C ]   °F
Weather ElementAverageHighLow
Temperature73.1 °F77 °F (12:00 pm)69.8 °F (3:00 am)
Dewpoint65.5 °F68 °F (1:00 am)62.6 °F (9:00 am)
Humidity76.6 %94 % (3:00 am)64 % (2:00 pm)
Barometer30.09 in30.15 in (8:00 pm)29.98 in (1:00 am)
Wind Speed10.4 mph16.1 mph (2:00 am)
Weather ElementAverage
Visibility7.4 mi
Wind DirectionS (177.4 °)

Weather ElementTotal
Precipitation---
Cooling Degree Days8.4 (Base 65)
Growing Degree Days23.4 (Base 50)
Averaged from 27 records on January 31, 2013
WEATHER CONDITIONS BREAKOUT
WIND DIRECTION BREAKOUT
WEATHER BY HOUR - JANUARY 31, 2013
[ °C ]   °F
Local TimeTemperatureDewpointHumidityBarometerVisibilityWind DirectionWind SpeedGust SpeedPrecipitationEventsConditions
1:00 AM71.6 °F68.0 °F88 %29.98 in6.2 miWSW (250°)13.8 mphScattered Clouds
2:00 AM71.0 °F67.0 °F84 %30.00 in6.0 miWSW (240°)16.1 mphMostly Cloudy
3:00 AM69.8 °F68.0 °F94 %30.01 in6.2 miSW (220°)11.5 mphMostly Cloudy
4:00 AM69.8 °F68.0 °F94 %30.01 in6.2 miSW (230°)9.2 mphMostly Cloudy
5:00 AM69.8 °F66.2 °F88 %30.04 in6.2 miSW (230°)8.1 mphScattered Clouds
6:00 AM69.8 °F64.4 °F83 %30.04 in6.2 miSSW (210°)8.1 mphPartly Cloudy
7:00 AM71.6 °F66.2 °F83 %30.06 in6.2 miSSW (200°)10.4 mphMostly Cloudy
8:00 AM74.0 °F64.0 °F65 %30.09 in19.0 miSouth (190°)10.4 mph
8:00 AM73.4 °F64.4 °F73 %30.09 in6.2 miSouth (190°)10.4 mphPartly Cloudy
9:00 AM75.2 °F62.6 °F65 %30.09 in6.2 miSouth (190°)11.5 mphPartly Cloudy
10:00 AM75.2 °F64.4 °F69 %30.09 in6.2 miSSW (210°)12.7 mphScattered Clouds
11:00 AM75.2 °F64.4 °F69 %30.09 in6.2 miSouth (180°)13.8 mphMostly Cloudy
12:00 PM77.0 °F64.4 °F65 %30.12 in6.2 miSSW (200°)13.8 mphMostly Cloudy
1:00 PM77.0 °F64.4 °F65 %30.09 in6.2 miSSE (160°)13.8 mphMostly Cloudy
2:00 PM75.0 °F65.0 °F64 %30.11 in19.0 miSSE (160°)11.5 mphMostly Cloudy
2:00 PM75.2 °F64.4 °F69 %30.09 in6.2 miSouth (170°)12.7 mphMostly Cloudy
3:00 PM77.0 °F66.2 °F69 %30.09 in6.2 miSSE (160°)13.8 mphMostly Cloudy
4:00 PM77.0 °F64.4 °F65 %30.09 in6.2 miSSE (160°)15.0 mphMostly Cloudy
5:00 PM75.2 °F66.2 °F73 %30.09 in6.2 miSSE (150°)10.4 mphMostly Cloudy
5:25 PM75.2 °F66.2 °F73 %30.12 in6.2 miSouth (170°)11.5 mphMostly Cloudy
6:00 PM73.4 °F66.2 °F78 %30.12 in6.2 miSouth (170°)10.4 mphMostly Cloudy
7:00 PM71.6 °F66.2 °F83 %30.12 in6.2 miSSE (160°)5.8 mphMostly Cloudy
8:00 PM71.0 °F67.0 °F82 %30.15 in12.0 miSouth (170°)4.6 mphPartly Cloudy
8:00 PM71.6 °F66.2 °F83 %30.15 in6.2 miSSE (160°)4.6 mphScattered Clouds
9:00 PM71.6 °F64.4 °F78 %30.15 in6.2 miEast (100°)6.9 mphMostly Cloudy
10:00 PM69.8 °F64.4 °F83 %30.15 in6.2 miEast (80°)5.8 mphPartly Cloudy
11:00 PM69.8 °F64.4 °F83 %30.15 in6.2 miEast (80°)3.5 mphScattered Clouds
Hourly data recorded from FAPE, located miles away from Port Elizabeth, South Africa







STORIES FROM OUR PARTNERS